This demonstration page uses our WeatherBlox Daily Observations layout. Learn more.

Left ArrowRight Arrow

33.98154, -81.23621

Hourly Observations for May 22, 2022

Temp ( °F °C ) Dew Point ( °F °C ) Humidity (%) Winds ( mph kmh ) Pressure ( in mb ) Visibility ( mi km ) Precip ( " mm )
12:56 am 00:56 Mostly Cloudy 72 22.2 69 20.6 91 91 WSW 6 9 30.16 1022 10 16 0.00 0.00
1:56 am 01:56 Mostly Cloudy 73 22.8 69 20.6 87 87 SSW 3 6 30.16 1021 10 16 0.00 0.00
2:56 am 02:56 Mostly Cloudy 71 21.7 69 20.6 94 94 E 5 7 30.14 1021 10 16 0.00 0.00
3:27 am 03:27 Mostly Cloudy 71 21.7 69 20.6 94 94 SSE 5 7 30.14 1021 10 16 0.00 0.00
3:56 am 03:56 Mostly Cloudy 70 21.1 69 20.6 97 97 SE 7 11 30.14 1021 10 16 0.00 0.00
4:56 am 04:56 Mostly Cloudy 70 21.1 69 20.6 97 97 SSE 3 6 30.16 1021 10 16 0.00 0.00
5:56 am 05:56 Cloudy 70 21.1 68 20 93 93 SSW 3 6 30.17 1022 10 16 0.00 0.00
6:56 am 06:56 Mostly Cloudy 71 21.7 68 20 90 90 SW 5 7 30.19 1022 10 16 0.00 0.00
7:56 am 07:56 Cloudy 71 21.7 69 20.6 94 94 SW 3 6 30.22 1023 10 16 0.00 0.00
8:56 am 08:56 Cloudy 71 21.7 69 20.6 94 94 SW 3 6 30.24 1024 10 16 0.00 0.00
9:56 am 09:56 Cloudy 74 23.3 69 20.6 85 85 Calm 30.23 1024 10 16 0.00 0.00
10:56 am 10:56 Mostly Cloudy 76 24.4 68 20 77 77 WSW 7 11 30.21 1023 10 16 0.00 0.00
11:56 am 11:56 Mostly Cloudy 80 26.7 67 19.4 64 64 SSW 7 11 30.19 1022 10 16 0.00 0.00
12:56 pm 12:56 Mostly Cloudy 82 27.8 65 18.3 56 56 SSW 17 28 30.19 1023 10 16 0.00 0.00
1:56 pm 13:56 Mostly Cloudy 85 29.4 66 18.9 53 53 SW 8 13 30.17 1022 10 16 0.00 0.00
2:56 pm 14:56 Mostly Cloudy 87 30.6 67 19.4 51 51 SSW 10 17 30.14 1021 10 16 0.00 0.00
3:56 pm 15:56 Partly Cloudy 87 30.6 67 19.4 51 51 WSW 13 20 30.12 1020 10 16 0.00 0.00
4:56 pm 16:56 Partly Cloudy 88 31.1 66 18.9 48 48 WSW 14 22 30.10 1019 10 16 0.00 0.00
5:56 pm 17:56 Partly Cloudy 88 31.1 65 18.3 46 46 WSW 10 17 30.09 1019 10 16 0.00 0.00
6:56 pm 18:56 Partly Cloudy 87 30.6 66 18.9 50 50 WSW 7 11 30.09 1019 10 16 0.00 0.00
7:56 pm 19:56 Mostly Cloudy 85 29.4 68 20 57 57 SSW 8 13 30.12 1020 10 16 0.00 0.00
8:56 pm 20:56 Mostly Cloudy 83 28.3 69 20.6 63 63 SSE 7 11 30.13 1020 10 16 0.00 0.00
9:56 pm 21:56 Partly Cloudy 80 26.7 68 20 67 67 SSW 8 13 30.13 1020 10 16 0.00 0.00
10:56 pm 22:56 Mostly Clear 76 24.4 64 17.8 67 67 SSW 6 9 30.16 1021 10 16 0.00 0.00
11:56 pm 23:56 Partly Cloudy 74 23.3 65 18.3 74 74 SSW 6 9 30.15 1021 10 16 0.00 0.00

Powered by AerisWeather